User: anonymous   Login
Location: Dompnac
(44.5644°N, 4.1026°E)
Time: 12:15:17
(UTC+00:00)
Language:

Spot 2 Rocket - Orbit

View from above orbital plane
View from above orbital plane
View from above satellite
View from above satellite

Ground track
Ground track

The orbit data is extracted from the following two-line orbital elements,

1 20443U 90005H   21163.15057148  .00000026  00000-0  23024-4 0  9994
2 20443  98.5286 229.4423 0010192 358.1110   2.0037 14.38129060644078
Epoch (UTC): 12 June 2021 03:36:49
Eccentricity: 0.0010192
inclination: 98.5286°
perigee height: 757 km
apogee height: 772 km
right ascension of ascending node: 229.4423°
argument of perigee: 358.1110°
revolutions per day: 14.38129060
mean anomaly at epoch: 2.0037°
orbit number at epoch: 64407

The dashed part of the orbit path shows where the satellite is in the earth's shadow,  

DLR